GW0007 Weather Reports


Display with metric or nautical units.
time (UTC)temp
F
wind
direction
speed
MPH
gust
MPH
rain 1hr
in
rain 24hr
in
rain mn
in
humidity
%
barometer
mb
20260507083043 51 262 11.0 22.0 0.00 0.02 0.02 78 1011.2
20260507081540 50 311 2.0 5.0 0.00 0.02 0.02 80 1011.7
20260507080040 51 229 9.0 14.0 0.01 0.02 0.02 77 1011.8
20260507074545 51 199 10.0 14.0 0.02 0.02 0.02 77 1011.7
20260507073044 51 211 7.0 11.0 0.02 0.02 0.02 79 1011.9
20260507071535 50 239 5.0 18.0 0.02 0.02 0.02 81 1012.6
20260507070044 52 329 14.0 22.0 0.01 0.01 0.01 72 1012.3
20260507064541 53 335 18.0 28.0 0.00 0.00 0.00 70 1011.8
20260507063048 53 311 5.0 15.0 0.00 0.00 0.00 69 1011.4
20260507061537 54 328 5.0 16.0 0.00 0.00 0.00 67 1011.3
20260507060052 55 335 9.0 29.0 0.00 0.00 0.00 64 1011.4
20260507054545 58 340 27.0 56.0 0.00 0.00 0.00 59 1011.1
20260507053042 60 330 14.0 22.0 0.00 0.00 0.00 42 1009.9
20260507051537 60 253 8.0 14.0 0.00 0.00 0.00 40 1009.4
20260507050046 60 249 9.0 15.0 0.00 0.00 0.00 40 1009.3
20260507044553 61 276 7.0 15.0 0.00 0.00 0.00 38 1009.1
20260507043040 63 295 7.0 16.0 0.00 0.00 0.00 36 1009.6
20260507041543 63 276 8.0 16.0 0.00 0.00 0.00 37 1009.8
20260507040039 62 288 7.0 15.0 0.00 0.00 0.00 37 1009.6
20260507034538 63 297 7.0 15.0 0.00 0.00 0.00 36 1009.6
20260507033044 64 321 11.0 20.0 0.00 0.00 0.00 34 1009.6
20260507030045 64 279 7.0 19.0 0.00 0.00 0.00 33 1009.2
20260507024545 65 295 12.0 18.0 0.00 0.00 0.00 32 1009.1
20260507023044 65 325 12.0 18.0 0.00 0.00 0.00 31 1009.0
20260507021542 65 293 11.0 19.0 0.00 0.00 0.00 31 1008.8
20260507020049 66 308 7.0 14.0 0.00 0.00 0.00 30 1008.8
20260507014542 67 333 15.0 26.0 0.00 0.00 0.00 29 1009.0
20260507013056 68 307 12.0 23.0 0.00 0.00 0.00 29 1008.9
20260507011536 68 309 14.0 30.0 0.00 0.00 0.00 28 1009.1
20260507010037 68 283 17.0 29.0 0.00 0.00 0.00 27 1009.1
20260507004539 67 318 16.0 29.0 0.00 0.00 0.00 29 1009.3
20260507003045 67 305 19.0 27.0 0.00 0.00 0.00 28 1009.4
20260507001539 67 254 16.0 30.0 0.00 0.00 0.00 29 1009.8
20260507000048 67 317 21.0 32.0 0.00 0.00 0.00 27 1009.6
20260506234550 67 302 17.0 34.0 0.00 0.00 0.00 27 1009.8
20260506233045 66 335 22.0 36.0 0.00 0.00 0.00 26 1009.8
20260506231545 66 323 20.0 34.0 0.00 0.00 0.00 27 1010.0
20260506230044 66 305 11.0 34.0 0.00 0.00 0.00 27 1010.2
20260506224544 65 316 16.0 35.0 0.00 0.00 0.00 26 1010.1
20260506223043 65 328 20.0 37.0 0.00 0.00 0.00 25 1010.4
20260506221538 65 323 19.0 34.0 0.00 0.00 0.00 26 1010.4
20260506220048 64 345 17.0 37.0 0.00 0.00 0.00 25 1010.8
20260506214601 64 297 18.0 30.0 0.00 0.00 0.00 25 1010.8
20260506213044 63 279 17.0 34.0 0.00 0.00 0.00 26 1010.8
20260506211541 63 285 18.0 33.0 0.00 0.00 0.00 26 1011.2
20260506210041 62 293 15.0 23.0 0.00 0.00 0.00 28 1011.6
20260506204549 62 304 13.0 34.0 0.00 0.00 0.00 29 1011.8
20260506203047 61 326 12.0 23.0 0.00 0.00 0.00 28 1011.9
20260506201545 61 231 8.0 25.0 0.00 0.00 0.00 28 1012.2
20260506200042 60 280 11.0 20.0 0.00 0.00 0.00 30 1012.4
20260506194557 59 278 12.0 27.0 0.00 0.03 0.00 29 1012.7
20260506193043 58 318 12.0 24.0 0.00 0.03 0.00 30 1013.0
20260506191543 57 230 14.0 25.0 0.00 0.03 0.00 31 1013.2
20260506190044 56 250 15.0 32.0 0.00 0.03 0.00 30 1013.5
20260506184550 55 304 15.0 29.0 0.00 0.04 0.00 33 1013.7
20260506183043 55 222 13.0 27.0 0.00 0.04 0.00 33 1013.9
20260506181547 53 259 13.0 25.0 0.00 0.04 0.00 34 1014.4
20260506180049 53 259 14.0 29.0 0.00 0.04 0.00 32 1014.6
20260506174542 52 257 12.0 24.0 0.00 0.04 0.00 33 1015.0
20260506173042 51 282 12.0 26.0 0.00 0.04 0.00 33 1015.1
20260506171554 50 211 11.0 23.0 0.00 0.04 0.00 34 1015.3
20260506170049 49 283 11.0 22.0 0.00 0.04 0.00 35 1015.6
20260506164544 48 259 12.0 25.0 0.00 0.04 0.00 38 1016.0
20260506163045 47 282 13.0 26.0 0.00 0.04 0.00 37 1016.2
20260506161542 46 296 9.0 24.0 0.00 0.04 0.00 40 1016.4
20260506160039 45 340 13.0 23.0 0.00 0.04 0.00 40 1016.7
20260506154537 44 297 8.0 19.0 0.00 0.04 0.00 48 1017.0
20260506153043 43 228 9.0 15.0 0.00 0.04 0.00 53 1017.1
20260506151543 40 220 9.0 17.0 0.00 0.04 0.00 59 1017.4
20260506150047 39 312 8.0 16.0 0.00 0.04 0.00 61 1017.6
20260506144547 38 250 7.0 15.0 0.00 0.04 0.00 64 1017.8
20260506143036 37 237 8.0 14.0 0.00 0.04 0.00 66 1018.1
20260506141537 35 229 5.0 14.0 0.00 0.04 0.00 70 1018.2
20260506140055 32 346 1.0 6.0 0.00 0.04 0.00 78 1018.3
20260506134543 31 354 4.0 8.0 0.00 0.04 0.00 78 1018.3
20260506133045 29 335 2.0 6.0 0.00 0.04 0.00 80 1018.4
20260506131544 30 269 0.0 4.0 0.00 0.04 0.00 79 1018.4
20260506130044 29 259 2.0 5.0 0.00 0.04 0.00 80 1018.5
20260506124543 28 269 2.0 8.0 0.00 0.04 0.00 81 1018.4
20260506123042 26 118 1.0 4.0 0.00 0.04 0.00 81 1018.5
20260506121539 26 0 0.0 4.0 0.00 0.04 0.00 86 1018.5
20260506120039 25 280 2.0 5.0 0.00 0.04 0.00 86 1018.5
20260506114543 25 64 0.0 3.0 0.00 0.04 0.00 87 1018.5
20260506113048 26 290 1.0 5.0 0.00 0.04 0.00 87 1018.4
20260506111543 26 0 1.0 6.0 0.00 0.04 0.00 86 1018.5
20260506110048 26 225 2.0 7.0 0.00 0.04 0.00 86 1018.5
20260506104544 26 245 4.0 5.0 0.00 0.04 0.00 88 1018.5
20260506103044 26 278 3.0 6.0 0.00 0.04 0.00 87 1018.6
20260506101549 27 238 3.0 6.0 0.00 0.04 0.00 88 1018.6
20260506100042 26 255 2.0 4.0 0.00 0.04 0.00 91 1018.6
20260506094540 26 266 0.0 2.0 0.00 0.04 0.00 91 1018.7
20260506093035 26 0 0.0 1.0 0.00 0.04 0.00 90 1018.7
20260506091536 26 0 0.0 2.0 0.00 0.04 0.00 90 1018.8
20260506090042 26 96 0.0 1.0 0.00 0.04 0.00 91 1018.7
20260506084544 25 0 0.0 0.0 0.00 0.04 0.00 90 1018.7